Temp_Advection
nan nan nan nan nan nan nan nan nan nan nan nan nan nan nan nan nan nan nan nan nan nan nan nan nan nan nan nan nan nan nan nan nan nan nan nan nan nan nan nan nan nan nan nan nan nan nan nan nan nan nan nan nan nan
nan 0 0 0 0 1 0 0 0 0 0 0 0 0 0 0 0 0 0 0 0 -1 -1 0 1 0 0 -0 -2 -1 -0 -0 -1 -1 -0 0 -0 0 0 -0 0 -0 -0 -0 -1 -1 -0 -1 -0 -1 -0 0 1 nan
nan 1 1 0 0 0 0 0 0 0 0 0 0 0 0 0 0 0 0 0 -0 -1 -0 0 0 0 0 0 0 -1 -0 -0 -0 -1 -2 -0 -0 -0 0 -0 0 -0 -0 -0 0 -0 -0 -1 0 0 0 1 0 nan
nan 0 1 1 0 0 0 0 0 0 0 0 0 0 0 0 0 0 0 0 0 -1 -0 0 0 0 0 0 0 0 -0 -0 -0 -0 -1 -0 0 -0 0 0 0 -0 0 0 -0 -1 -1 -1 -0 0 1 1 1 nan
nan 0 1 1 1 1 1 0 0 0 0 0 0 0 0 0 0 0 0 0 0 -0 -1 1 0 0 0 0 0 0 0 0 -0 -1 -0 -0 -0 -0 -0 0 -0 -1 -0 -0 -1 -2 -0 -0 0 1 1 1 1 nan
nan 1 1 1 1 0 0 0 0 0 0 0 0 0 0 0 0 0 0 0 0 0 -1 -0 0 0 0 0 0 1 1 0 0 -0 -0 -0 -0 -0 -0 -0 -2 -2 -1 -0 -0 0 1 0 1 1 1 1 1 nan
nan 0 0 1 1 1 0 0 0 0 0 0 0 0 0 0 0 0 0 0 0 0 -0 -1 -0 0 0 0 0 0 0 0 0 0 0 0 0 0 -0 -1 -3 -1 0 0 1 1 0 0 1 1 1 1 1 nan
nan 0 0 0 1 1 1 1 1 1 0 0 0 0 0 0 0 0 0 0 0 0 -1 -1 -0 0 0 0 0 0 0 1 0 0 0 0 0 0 -0 -2 -1 -0 -0 -0 0 0 0 1 0 1 1 1 1 nan
nan 1 0 0 0 0 1 1 1 1 1 1 0 0 0 0 0 0 0 0 0 0 -0 -0 -0 0 0 0 0 0 0 -0 -0 0 0 0 0 -0 -0 -0 -1 -0 -0 0 1 1 0 1 1 1 2 1 0 nan
nan 2 1 0 0 0 -0 0 0 1 1 1 1 0 0 0 0 0 0 0 0 0 -0 -0 -0 0 0 -0 -0 -0 -0 0 -0 0 0 0 -0 -1 -0 -0 -1 -1 -0 0 1 0 1 1 1 0 0 1 0 nan
nan 1 1 1 0 0 -0 -0 -0 0 0 0 0 -0 0 1 0 0 -0 -0 -0 -0 -0 -0 -0 -0 -0 -0 0 0 0 0 0 0 0 0 -0 -0 -1 -1 -0 -0 0 1 1 1 1 1 -0 1 0 -0 -0 nan
nan 1 0 0 1 1 1 0 -0 0 0 0 0 -0 0 0 -0 -1 0 0 0 0 0 0 0 0 0 -0 -0 0 -0 0 -0 -0 0 0 -0 0 -0 -0 0 1 1 0 0 -0 -1 -0 0 0 0 -0 -0 nan
nan 0 1 1 0 0 1 1 0 0 0 1 0 0 -0 -0 0 0 0 0 -0 -0 0 0 -0 0 0 0 -0 0 -0 0 -0 -0 0 -0 -0 0 -0 -0 0 -0 -0 -0 -0 -0 -0 0 0 -0 0 -0 -0 nan
nan 0 1 1 0 0 0 0 0 0 -0 -0 -0 -0 -0 -0 -0 -0 -0 -0 0 0 0 0 -0 -0 -0 -0 0 0 0 0 -0 0 0 -0 -0 -0 0 0 0 0 0 -0 -0 0 0 0 0 0 0 0 -0 nan
nan 0 0 0 0 0 0 0 0 0 -0 -0 -0 -0 -0 -0 0 0 0 0 0 0 0 0 -0 -0 -0 -0 -0 0 0 0 -0 0 0 -0 0 0 0 -0 0 0 0 0 -0 0 -0 -0 -0 -0 -0 0 0 nan
nan 0 -0 0 0 0 0 0 0 -0 -1 -0 -0 -0 0 0 -0 0 0 0 0 0 0 -0 0 -0 -0 -0 -0 -0 0 -0 0 0 0 0 0 -0 -0 -0 0 -0 -0 -0 -0 -0 -0 -0 -0 -0 -0 0 0 nan
nan -0 0 0 0 0 0 0 -0 -1 -0 -0 -0 0 0 -0 -0 0 0 0 0 -0 -0 -0 0 0 0 0 0 -0 -0 0 0 0 0 -0 0 0 0 0 -0 -0 -0 -0 -0 -0 -0 -0 -0 -0 -0 -0 -0 nan
nan -0 0 0 0 0 -0 -0 -0 -0 -0 0 0 0 0 0 0 0 0 0 -0 -0 -0 -0 0 -0 0 0 0 -0 0 -0 -0 0 0 0 0 0 0 0 -0 -0 -0 -0 -0 -0 -0 -0 -0 -0 -0 -0 -0 nan
nan 0 0 0 0 -0 -0 -0 -0 -0 -0 -0 0 0 0 0 0 0 0 0 0 0 0 -0 -0 -0 -0 -0 -0 -0 -0 -0 -0 -0 0 0 0 0 -0 -0 -0 -0 -0 -0 -0 -0 0 0 0 -0 -0 -0 -1 nan
nan 0 0 0 -0 -0 -0 -0 -0 -0 -0 -0 -0 -0 0 0 0 0 0 0 0 -0 -0 -0 -0 -0 -0 -0 -0 0 0 0 -0 -0 -0 0 0 0 -0 -0 -0 -0 -0 -0 -0 -0 -0 -0 -0 -0 -0 -1 -1 nan
nan -0 0 0 -0 -0 -0 -0 -0 -0 -0 -0 -0 -0 -0 0 0 0 0 0 -0 -0 0 -0 -0 -0 0 0 0 0 0 0 0 0 0 0 0 -0 -0 -0 -0 -0 -0 -1 -1 -0 -1 -1 -2 -2 -1 -1 -1 nan
nan -0 -0 0 -0 -0 -0 -0 0 0 -0 -0 -0 -0 -0 -0 0 0 0 -0 -0 -0 0 0 0 0 0 0 0 0 0 0 0 0 0 0 0 -0 -0 -0 -1 -1 -1 -1 -1 -1 -1 -1 -1 -1 -1 -1 -1 nan
nan -0 -0 -0 -0 -0 -0 0 -0 -0 -0 0 0 -0 0 -0 0 0 0 0 -0 -0 0 0 0 0 0 0 0 0 0 0 0 0 0 -0 -0 -0 -0 -1 -1 -1 -1 -1 -1 -1 -1 -1 -1 -1 -1 -1 -1 nan
nan -0 -0 -0 -0 -0 0 0 0 0 0 0 -0 0 0 0 0 0 0 0 0 0 0 0 0 1 0 1 1 0 0 0 -0 -0 -0 -0 -0 -0 -0 -1 -1 -1 -1 -1 -0 -1 -1 -1 -1 -1 -1 -1 -1 nan
nan -0 -0 -0 0 -0 -0 -0 -0 -0 0 -0 0 0 0 0 -0 0 -0 0 0 0 0 0 1 1 1 0 0 0 0 -0 -0 -0 -0 -0 -0 -0 -0 -0 -0 -0 -1 -1 -1 -1 -1 -1 -1 -1 -1 -1 -1 nan
nan -0 0 -0 0 -0 -0 -0 -0 -0 -0 0 0 0 -0 -0 -0 0 0 0 0 0 0 0 0 0 0 0 0 -0 -0 -0 -0 -0 -0 -0 -0 -0 -0 -1 -1 -1 -1 -1 -1 -1 -1 -1 -1 -1 -1 -1 -1 nan
nan -0 -0 -0 -0 -0 -0 -0 -0 -0 -0 -0 -0 0 0 -0 0 -0 0 0 0 0 0 0 0 0 0 0 -0 -0 -1 -1 -0 -0 -0 -0 -0 -0 -0 -0 -1 -1 -1 -1 -0 -1 -1 -1 -1 -1 -1 -1 -1 nan
nan 0 0 -0 -0 0 0 0 0 0 0 0 -0 0 0 0 -0 -0 0 0 0 0 0 0 -0 -0 -0 -0 -0 -0 -0 -0 -0 -0 -0 0 0 -0 -0 -0 -0 -0 -0 -0 -0 -0 -0 -1 -1 -1 -1 -1 -1 nan
nan -0 0 -0 -0 -0 -0 0 0 -0 -0 0 -0 -0 -0 -0 0 0 0 0 0 -0 0 0 0 -0 -0 -0 -0 -0 -0 -0 -0 0 -0 -0 0 0 -0 -0 -0 -0 -0 -0 0 0 0 0 0 -0 -0 -0 -1 nan
nan 0 0 0 -0 -0 -0 -0 -0 -0 -0 -0 -0 -1 -1 -0 0 0 0 -0 -0 0 0 0 0 -0 -0 -0 -0 -0 -0 -0 -0 -0 -1 -1 -1 -1 -1 -0 -0 -0 -0 -1 -1 -0 -0 0 0 0 -0 -0 -0 nan
nan -0 -0 0 -0 -0 -0 0 -0 0 0 -0 -0 -0 -1 -0 0 0 0 -0 -0 -0 -0 -0 -0 -0 -0 0 -0 -0 -0 -0 -1 -0 -0 -0 -1 -1 -1 -1 -1 -1 -1 -1 -1 -1 -1 -0 -0 -0 -0 -0 -0 nan
nan -0 -0 -0 -0 0 0 -0 -0 -0 0 0 0 -0 -0 -0 -0 0 0 0 -0 -0 -0 -0 -0 -0 -0 -0 -0 -0 -0 -0 -0 -0 -0 -0 -0 -1 -1 -1 -1 -0 -0 -0 -0 -0 -0 -0 -0 -0 -0 -0 -0 nan
nan nan nan nan nan nan nan nan nan nan nan nan nan nan nan nan nan nan nan nan nan nan nan nan nan nan nan nan nan nan nan nan nan nan nan nan nan nan nan nan nan nan nan nan nan nan nan nan nan nan nan nan nan nan
Wind_Speed
40 39 37 35 33 31 29 26 23 21 20 20 19 20 21 22 22 16 13 10 7 7 7 5 9 10 10 10 5 10 5 1 4 4 3 3 3 5 2 4 6 7 7 4 3 1 8 11 4 8 6 7 21 23
38 36 35 34 31 30 27 24 22 20 19 18 18 18 18 18 18 16 15 11 8 6 9 12 10 8 9 10 13 17 5 6 8 4 1 3 2 2 2 3 2 2 7 5 9 6 4 18 7 19 9 12 20 21
35 37 35 32 29 27 24 22 21 19 18 17 17 17 16 16 16 14 15 13 10 16 10 8 9 9 7 8 10 8 6 8 7 6 8 3 3 4 4 6 3 4 7 3 2 4 14 13 24 17 16 16 13 18
33 33 32 30 27 24 22 21 20 18 17 16 15 14 14 14 13 12 13 12 8 8 6 3 6 6 4 5 9 6 6 14 12 9 5 3 3 9 3 3 4 5 8 5 5 9 8 12 18 20 16 14 13 15
31 30 29 28 29 23 22 20 18 17 16 14 13 13 12 12 12 12 11 10 7 3 5 6 8 4 3 3 3 5 6 13 9 5 3 3 5 3 1 2 3 9 7 4 6 12 9 7 9 15 17 16 16 17
29 28 27 27 30 22 21 19 17 16 15 14 12 12 12 12 12 12 5 6 7 8 4 2 4 4 6 5 8 11 10 8 7 5 4 5 5 6 4 4 13 20 22 22 14 13 15 16 12 16 16 17 15 16
29 27 25 25 26 23 19 18 16 15 14 13 12 11 11 11 11 4 5 8 10 8 4 4 2 3 7 8 7 6 7 3 2 4 4 3 4 6 3 4 17 19 19 19 19 17 9 12 10 19 16 16 18 18
27 26 24 23 21 20 19 17 16 15 13 13 12 11 10 10 9 7 7 9 10 5 3 4 2 2 5 3 3 3 4 5 1 2 2 3 4 2 3 15 18 17 17 20 20 17 15 10 9 18 16 21 22 16
31 28 24 23 21 17 16 15 15 15 14 13 13 12 10 8 5 7 8 7 8 3 5 3 4 3 5 3 2 2 2 2 1 1 2 3 1 4 5 7 9 8 7 9 11 13 8 14 20 22 24 19 14 12
27 24 25 24 21 19 17 16 16 15 15 15 16 5 4 8 11 10 4 3 3 2 2 3 5 1 3 3 2 2 3 1 1 3 3 1 3 9 13 16 16 11 11 12 16 14 17 20 22 20 15 10 7 2
22 20 19 18 20 20 18 17 16 17 15 12 5 3 12 14 5 3 3 4 3 2 2 2 2 3 2 3 2 1 2 1 2 3 2 2 2 5 13 10 6 5 6 6 8 15 18 20 18 15 9 3 5 9
24 21 17 17 16 16 18 20 21 18 11 7 7 13 9 2 3 5 1 2 2 2 1 2 3 3 3 3 4 3 2 1 4 4 1 2 2 7 9 14 15 14 14 17 17 20 20 18 11 6 4 5 8 9
26 25 24 21 18 16 15 16 20 20 17 13 4 3 2 4 3 5 6 1 2 1 1 2 2 2 3 2 5 2 3 4 3 2 2 1 5 15 16 15 15 13 16 15 14 11 10 8 6 2 5 7 8 9
21 21 20 19 17 16 15 13 13 21 6 4 3 3 2 2 2 2 2 2 3 3 3 4 4 2 2 2 2 3 1 1 3 2 2 1 7 3 7 10 11 12 13 13 11 5 2 4 5 6 7 8 9 10
15 14 11 14 13 11 10 11 9 6 4 4 4 3 2 3 4 4 6 5 4 4 5 5 4 2 2 2 1 2 1 1 1 1 1 5 6 8 9 7 7 6 5 4 4 7 8 9 9 10 10 11 12 12
11 11 12 10 9 8 8 8 7 4 5 5 4 4 6 4 3 4 5 5 4 6 6 4 2 2 1 1 2 2 3 1 2 1 4 7 8 7 5 4 5 5 10 13 11 10 11 12 12 12 12 10 10 11
4 11 9 8 7 8 8 8 5 6 5 3 3 8 9 11 7 5 8 5 6 3 1 2 3 2 1 2 2 2 1 1 6 9 6 2 1 4 5 3 2 7 8 11 11 12 12 12 13 13 13 11 12 15
12 9 7 6 6 9 9 5 5 5 5 4 3 6 7 8 10 7 7 5 2 4 3 2 4 2 2 2 1 3 9 10 10 9 7 6 4 6 4 2 6 7 8 10 11 11 11 12 13 14 16 19 22 24
13 9 5 6 7 5 4 5 4 4 4 5 9 8 6 8 8 8 6 4 6 5 5 2 3 2 2 3 3 8 8 9 8 6 5 5 4 1 1 4 5 6 8 9 10 11 12 13 16 18 21 25 28 30
7 10 7 6 7 4 4 5 5 4 3 3 6 7 4 3 5 5 3 2 1 1 1 1 3 2 2 4 4 6 8 6 5 9 8 4 2 2 3 4 7 8 11 13 14 17 20 22 24 26 29 31 33 36
5 8 8 5 7 7 5 4 4 4 5 3 10 4 4 5 4 3 2 1 2 1 1 1 3 7 9 8 7 4 4 4 5 5 6 5 2 2 3 4 8 12 17 20 22 23 23 25 27 28 29 29 27 27
10 7 7 4 4 3 4 4 3 4 2 5 6 3 3 2 2 2 1 1 2 2 1 2 3 7 8 6 5 5 4 4 4 5 5 5 5 6 9 13 16 18 18 18 19 21 23 24 26 27 28 28 28 28
8 8 6 6 4 4 2 4 2 2 2 3 4 2 2 1 2 4 2 2 2 2 2 4 5 6 6 8 8 6 7 7 7 5 1 3 6 9 11 13 15 16 17 18 20 22 25 26 27 28 28 29 29 29
6 6 5 4 4 1 2 2 2 2 4 3 2 2 2 5 4 2 1 3 3 3 3 5 8 10 12 12 11 9 6 3 1 3 6 9 10 11 12 13 14 15 17 20 23 25 27 29 30 30 30 30 29 29
2 2 1 2 1 1 2 2 0 1 3 2 2 1 3 5 2 2 2 3 7 6 4 3 11 11 10 9 6 4 0 3 6 9 9 10 11 10 10 11 14 18 22 25 27 29 30 30 31 31 31 30 30 30
1 1 2 1 1 1 4 2 3 5 2 3 3 3 3 3 1 3 1 3 7 6 4 2 4 5 4 4 3 3 5 8 10 10 11 10 11 12 14 18 21 22 23 25 28 30 30 30 31 30 31 29 29 29
1 3 2 4 3 3 2 2 2 2 3 3 3 2 2 2 2 1 4 4 5 5 2 3 5 6 5 4 3 5 9 11 10 9 8 8 11 15 18 21 23 24 24 25 25 26 28 29 29 28 27 26 26 25
2 2 1 2 4 4 2 1 1 2 2 3 7 2 3 2 2 2 3 3 3 2 2 5 5 2 2 3 5 6 7 9 9 7 8 12 14 16 17 19 19 21 22 23 24 24 25 26 25 23 20 18 18 19
2 2 3 2 2 1 1 1 1 1 3 3 3 2 3 3 4 5 6 4 3 5 6 6 6 5 5 5 7 8 8 7 7 8 12 15 17 19 21 22 23 23 24 24 23 24 24 23 20 18 17 15 17 19
1 4 1 2 1 1 2 5 3 3 2 2 5 6 6 6 6 5 3 4 5 5 4 3 4 5 5 6 8 10 11 13 14 16 18 20 21 22 23 24 25 25 25 26 26 24 21 20 18 17 17 17 18 18
1 1 1 1 1 2 5 7 3 2 3 2 3 2 6 7 6 3 1 0 2 3 4 4 4 4 5 7 8 10 11 13 17 18 20 21 23 23 24 24 25 25 25 24 24 22 21 20 20 20 19 18 18 17
2 2 3 1 1 2 3 2 2 1 1 1 1 1 4 4 4 4 3 2 2 3 2 2 4 6 8 10 12 14 17 19 21 22 22 22 23 23 24 25 24 23 22 21 21 20 19 18 18 18 17 16 16 15
2 2 2 2 2 1 2 4 1 1 1 1 2 4 4 3 3 3 3 3 1 2 4 6 6 8 11 12 15 17 18 19 21 21 21 21 22 23 23 23 21 20 20 19 19 18 17 16 16 15 15 14 14 14
Wind_Direction
154 154 153 153 154 154 150 148 147 149 150 144 141 144 150 163 173 181 168 160 153 106 106 146 145 156 151 147 136 158 84 330 53 73 122 196 151 220 132 182 180 169 156 193 130 109 275 178 124 167 205 179 183 195
151 155 156 157 157 152 149 149 147 148 146 142 143 145 148 153 161 174 164 161 144 116 117 111 124 149 181 166 145 163 159 159 159 92 141 127 155 160 143 234 116 234 193 181 188 214 255 195 220 212 211 193 199 206
155 157 157 157 156 150 152 152 150 148 144 141 141 145 150 153 158 167 158 147 139 116 111 113 104 114 136 168 166 144 177 167 169 140 143 156 158 137 174 236 200 245 179 213 99 257 241 238 238 251 237 227 225 212
156 156 155 155 151 159 159 159 154 150 145 141 140 143 146 148 151 155 160 150 138 123 111 118 128 123 113 152 184 173 183 176 167 157 115 139 155 196 210 212 175 201 151 200 258 277 277 260 242 245 234 226 194 183
156 155 154 153 159 167 164 163 157 152 148 144 141 141 144 148 149 151 153 149 152 125 133 129 134 103 116 132 166 188 184 184 161 135 111 207 171 128 84 65 264 196 195 168 229 242 226 235 251 233 222 198 186 185
150 151 153 155 166 172 167 163 159 155 151 151 149 146 146 149 150 144 121 153 148 126 114 118 153 142 158 162 166 159 174 182 181 167 175 201 191 181 163 209 252 243 244 253 257 274 250 264 263 217 200 184 191 198
150 150 151 154 161 171 167 165 163 159 156 156 156 153 152 156 164 150 141 150 160 153 124 79 8 160 170 165 165 166 180 177 184 166 200 189 162 193 150 224 256 260 267 268 265 261 236 215 206 191 194 198 185 169
152 154 154 154 155 158 162 163 163 160 157 155 154 152 149 152 150 121 113 142 155 136 121 116 270 131 170 162 153 173 174 170 155 173 170 192 149 148 249 246 271 275 272 270 269 246 253 234 185 185 197 174 158 165
156 158 158 159 154 154 159 156 153 156 155 149 148 145 141 154 129 130 125 141 166 132 132 106 141 217 167 122 120 143 172 52 4 144 224 163 188 225 257 322 306 308 294 297 238 227 222 195 182 173 166 158 166 178
95 122 153 167 157 154 157 154 151 141 142 143 142 131 129 138 137 140 134 156 155 116 85 99 137 159 150 130 59 87 34 130 229 248 164 168 257 286 322 309 287 289 280 278 204 171 169 154 148 143 137 145 173 110
86 86 110 130 152 167 169 163 152 145 149 144 136 81 131 133 123 135 80 58 42 59 38 60 149 128 112 112 168 110 155 142 229 264 176 264 284 325 344 353 342 287 272 189 204 180 166 159 132 118 132 109 345 284
93 101 99 106 130 147 157 168 173 164 155 145 121 115 128 137 91 88 71 66 66 190 95 106 113 105 123 149 103 156 157 111 240 155 161 254 346 49 63 79 89 105 125 123 132 116 100 92 101 107 55 274 273 300
89 90 92 96 100 116 138 161 170 179 168 142 115 123 46 7 86 171 166 197 124 73 118 150 73 95 126 139 90 108 181 221 149 192 227 21 92 94 94 99 86 64 57 58 68 72 67 54 39 292 277 290 294 297
97 93 91 94 100 109 120 138 151 147 115 89 87 83 39 74 44 69 58 86 107 92 94 100 80 70 47 76 110 179 191 72 215 219 256 358 30 94 103 110 84 78 79 83 80 59 14 339 321 308 300 300 303 304
99 100 95 92 90 103 119 144 138 105 95 88 71 81 71 115 93 116 102 102 100 124 125 106 86 99 30 95 44 101 82 232 74 164 359 27 42 116 130 130 96 93 85 72 18 347 344 337 329 323 315 312 311 307
99 101 79 68 80 91 111 118 132 91 67 65 71 99 127 105 92 101 109 101 104 125 109 93 109 77 33 103 71 224 117 110 240 116 63 53 50 64 142 134 94 38 7 346 345 340 334 329 325 324 323 322 315 315
109 75 56 56 69 65 126 116 77 63 70 67 69 107 111 104 112 104 109 100 115 98 86 101 83 175 106 80 68 30 82 63 89 103 111 119 262 284 303 314 32 355 351 349 344 341 335 326 320 319 318 323 318 317
67 59 54 49 66 86 85 61 73 73 76 89 105 109 104 113 126 114 96 106 122 128 142 165 124 74 124 134 151 164 160 169 180 190 223 251 237 222 206 253 314 319 326 332 332 333 336 335 332 331 325 320 309 309
50 43 41 50 46 54 51 47 46 86 74 88 109 108 113 120 119 127 124 95 66 92 125 113 81 153 210 204 164 176 202 197 215 191 183 173 162 158 6 346 342 340 342 343 343 336 325 319 316 310 306 307 306 306
33 28 37 59 43 58 64 40 51 73 89 107 117 115 102 114 152 144 145 148 199 349 94 102 196 169 130 119 119 138 152 151 162 157 140 133 165 257 302 329 328 331 325 321 318 313 309 306 304 306 308 310 310 308
34 34 36 56 41 54 71 56 61 82 122 114 132 122 101 123 136 155 159 197 269 342 42 119 114 120 127 122 115 122 173 208 225 220 182 163 162 281 317 333 329 325 321 318 316 316 316 318 321 321 321 320 319 314
30 19 23 71 51 63 79 67 84 88 98 136 135 108 115 133 139 185 185 247 294 356 59 164 185 185 168 158 159 170 177 217 209 175 166 182 238 279 308 319 322 323 323 323 324 327 330 329 327 325 324 322 319 317
4 2 15 22 33 50 33 125 69 76 100 157 129 86 118 123 178 167 239 221 249 225 171 152 186 203 212 183 182 186 170 172 172 167 184 315 324 324 321 319 321 325 327 330 331 331 329 328 326 326 325 323 323 321
349 349 2 14 34 74 120 90 132 142 153 169 149 195 178 157 163 199 241 162 152 189 190 179 178 174 165 165 162 147 139 138 293 326 330 329 325 325 326 326 329 331 332 331 330 328 328 328 328 327 327 326 325 324
330 326 305 287 176 137 39 8 354 90 210 210 139 226 186 159 121 199 224 139 143 131 115 149 184 187 184 172 170 162 145 326 327 323 325 330 331 326 320 327 333 335 332 329 330 331 331 330 328 328 327 327 327 326
134 241 196 237 252 165 202 156 207 209 181 175 206 144 145 111 141 242 113 140 144 135 121 135 146 153 164 186 234 285 318 334 336 327 325 326 329 333 335 334 332 332 333 332 330 329 328 327 327 328 328 330 328 325
328 270 231 232 241 252 236 225 192 172 187 193 177 138 113 161 213 102 141 136 150 148 192 279 254 250 260 277 304 326 334 336 334 329 329 323 324 328 330 333 335 334 334 332 331 330 328 327 328 329 332 332 337 338
273 280 210 277 248 235 193 154 204 204 226 160 141 140 170 187 124 122 145 152 169 201 263 291 312 330 311 303 310 320 326 332 340 344 322 316 319 321 324 328 329 330 332 333 332 332 330 329 330 330 333 333 336 335
262 322 321 346 3 44 35 229 270 62 354 196 131 119 115 100 140 152 154 176 222 265 277 290 302 310 309 307 310 321 332 335 323 307 312 320 327 330 333 333 334 332 331 332 334 334 334 334 331 327 325 322 318 319
356 7 17 340 51 39 14 12 27 9 44 123 126 122 122 126 137 161 208 268 279 271 259 271 297 310 311 312 321 326 326 330 333 332 331 330 330 329 330 329 329 330 331 333 334 335 334 332 329 324 322 323 322 321
34 11 350 328 25 17 324 309 328 51 128 89 75 119 136 149 159 151 193 306 1 339 309 301 316 338 333 334 332 327 329 329 327 324 324 324 323 322 323 326 327 328 329 330 332 335 338 337 335 335 335 334 334 334
313 345 346 288 276 349 323 335 275 222 201 228 203 136 141 150 141 170 173 208 290 330 326 329 340 343 341 342 338 333 327 326 323 321 320 319 320 320 322 323 325 327 328 331 334 336 336 336 335 336 338 340 340 340
251 233 231 254 254 264 310 330 331 290 174 117 89 137 150 147 120 161 191 220 304 339 334 341 336 334 336 334 328 324 322 320 319 320 319 317 316 317 320 322 326 330 332 333 333 334 337 339 339 340 343 343 343 342
Height
1366 1374 1381 1388 1396 1404 1408 1413 1419 1425 1429 1431 1435 1438 1442 1447 1451 1454 1457 1458 1461 1465 1471 1472 1474 1477 1480 1483 1493 1497 1504 1505 1509 1522 1531 1534 1542 1529 1529 1525 1530 1535 1541 1546 1555 1561 1534 1503 1509 1515 1504 1500 1503 1506
1368 1377 1386 1394 1401 1405 1410 1416 1422 1427 1430 1433 1436 1440 1444 1447 1451 1455 1457 1459 1462 1464 1472 1474 1475 1477 1479 1482 1484 1491 1494 1496 1499 1513 1523 1525 1533 1528 1531 1532 1520 1528 1519 1525 1525 1517 1500 1499 1497 1498 1498 1498 1501 1502
1376 1384 1390 1397 1402 1406 1412 1419 1424 1428 1431 1435 1438 1441 1445 1448 1451 1455 1457 1460 1463 1467 1474 1476 1477 1479 1480 1481 1483 1487 1493 1494 1496 1498 1506 1515 1522 1522 1527 1524 1514 1511 1508 1515 1512 1498 1497 1498 1497 1496 1496 1497 1498 1500
1382 1388 1393 1399 1404 1410 1417 1423 1427 1430 1433 1436 1439 1443 1446 1449 1452 1455 1458 1461 1464 1467 1472 1479 1478 1480 1481 1482 1483 1485 1487 1490 1494 1497 1501 1509 1516 1509 1517 1511 1512 1506 1506 1504 1506 1497 1495 1494 1493 1493 1493 1494 1496 1499
1384 1390 1396 1401 1408 1416 1421 1425 1428 1431 1435 1438 1442 1445 1448 1451 1454 1457 1460 1462 1464 1468 1473 1478 1479 1481 1481 1483 1484 1486 1487 1489 1492 1496 1499 1505 1503 1507 1508 1509 1509 1498 1496 1503 1499 1488 1488 1488 1489 1490 1490 1491 1494 1496
1389 1394 1400 1406 1413 1419 1423 1426 1430 1433 1436 1440 1444 1447 1450 1453 1456 1458 1462 1464 1465 1466 1470 1479 1481 1481 1482 1483 1484 1486 1487 1489 1491 1491 1494 1495 1496 1499 1506 1504 1489 1486 1486 1485 1485 1485 1485 1485 1485 1486 1488 1490 1493 1495
1394 1399 1405 1410 1415 1420 1424 1428 1431 1435 1439 1442 1446 1449 1452 1455 1457 1459 1461 1463 1465 1468 1470 1479 1480 1481 1482 1483 1485 1486 1487 1488 1490 1491 1492 1493 1494 1497 1501 1500 1478 1481 1482 1482 1481 1481 1482 1481 1481 1484 1487 1489 1491 1495
1399 1404 1409 1413 1418 1422 1426 1430 1433 1437 1441 1444 1448 1451 1454 1456 1459 1461 1462 1464 1466 1468 1471 1479 1482 1482 1482 1483 1485 1486 1487 1488 1489 1491 1492 1492 1494 1495 1495 1476 1476 1477 1477 1476 1476 1477 1478 1479 1481 1483 1485 1488 1492 1496
1402 1406 1411 1416 1420 1425 1429 1433 1436 1439 1442 1446 1449 1453 1456 1459 1461 1463 1464 1466 1468 1472 1471 1476 1482 1486 1482 1484 1485 1486 1486 1490 1492 1491 1492 1493 1493 1490 1478 1478 1477 1476 1476 1475 1475 1476 1477 1478 1479 1481 1484 1489 1495 1499
1405 1409 1414 1419 1423 1427 1431 1435 1438 1442 1445 1448 1453 1455 1458 1460 1462 1465 1467 1468 1469 1471 1473 1475 1478 1482 1483 1484 1487 1489 1489 1492 1493 1491 1490 1490 1484 1480 1480 1478 1476 1475 1474 1474 1473 1475 1476 1479 1482 1485 1488 1494 1498 1499
1414 1415 1418 1421 1425 1429 1433 1436 1440 1444 1447 1450 1453 1456 1459 1461 1464 1465 1467 1470 1473 1476 1475 1477 1478 1480 1483 1485 1487 1489 1491 1493 1492 1493 1492 1491 1488 1484 1480 1477 1475 1474 1474 1474 1475 1476 1477 1480 1483 1489 1495 1498 1498 1499
1422 1423 1424 1425 1428 1431 1434 1437 1442 1446 1449 1452 1454 1458 1462 1463 1464 1468 1473 1475 1475 1477 1478 1478 1480 1481 1482 1483 1485 1490 1492 1493 1492 1491 1492 1486 1488 1486 1484 1481 1479 1477 1477 1477 1478 1479 1482 1486 1491 1494 1495 1497 1496 1496
1429 1430 1430 1431 1433 1435 1438 1440 1443 1447 1451 1454 1457 1460 1461 1466 1466 1467 1468 1474 1476 1477 1478 1479 1480 1481 1482 1484 1485 1488 1489 1490 1489 1489 1486 1488 1490 1488 1487 1486 1486 1486 1486 1486 1486 1488 1490 1491 1494 1494 1495 1493 1492 1492
1436 1436 1437 1438 1439 1440 1442 1443 1446 1448 1450 1454 1458 1464 1466 1469 1471 1471 1472 1474 1477 1477 1478 1479 1481 1482 1483 1484 1486 1486 1489 1489 1486 1488 1495 1490 1490 1490 1492 1492 1492 1492 1492 1493 1494 1495 1494 1494 1494 1493 1492 1490 1489 1488
1441 1441 1442 1443 1444 1445 1446 1447 1448 1450 1452 1457 1460 1466 1470 1472 1472 1473 1474 1475 1477 1478 1479 1480 1483 1484 1484 1486 1487 1489 1489 1489 1491 1496 1494 1493 1491 1491 1494 1494 1495 1496 1496 1495 1495 1495 1494 1493 1491 1491 1490 1488 1487 1485
1445 1446 1445 1447 1447 1447 1448 1449 1450 1452 1455 1461 1466 1469 1472 1473 1474 1475 1476 1476 1477 1478 1479 1481 1483 1485 1487 1487 1490 1491 1491 1496 1496 1493 1494 1494 1494 1494 1495 1496 1497 1497 1497 1497 1495 1494 1493 1491 1490 1488 1487 1485 1484 1482
1450 1449 1449 1450 1449 1449 1450 1452 1454 1457 1462 1467 1470 1470 1471 1473 1475 1475 1476 1478 1478 1480 1481 1482 1486 1486 1487 1488 1489 1490 1492 1494 1494 1494 1495 1496 1496 1496 1496 1497 1497 1497 1496 1495 1494 1492 1491 1489 1488 1487 1485 1483 1481 1479
1452 1452 1453 1453 1452 1452 1453 1454 1457 1462 1467 1470 1471 1473 1474 1474 1476 1477 1478 1479 1480 1479 1481 1483 1484 1488 1491 1491 1490 1491 1492 1492 1493 1494 1495 1495 1495 1496 1496 1496 1497 1497 1496 1494 1493 1492 1490 1488 1486 1484 1482 1480 1476 1474
1457 1456 1456 1455 1454 1455 1457 1460 1462 1466 1470 1471 1473 1474 1475 1477 1478 1480 1481 1481 1481 1480 1481 1482 1486 1488 1488 1486 1486 1488 1490 1492 1492 1493 1494 1495 1496 1496 1496 1495 1495 1494 1493 1492 1490 1488 1487 1485 1483 1480 1477 1474 1469 1466
1459 1459 1458 1459 1459 1459 1462 1465 1466 1469 1472 1474 1475 1476 1478 1479 1480 1481 1482 1482 1482 1482 1482 1483 1483 1483 1484 1485 1486 1488 1490 1491 1492 1492 1494 1494 1494 1494 1493 1493 1492 1491 1490 1489 1487 1485 1482 1480 1477 1474 1470 1467 1463 1458
1463 1462 1462 1462 1462 1464 1467 1469 1471 1473 1475 1476 1477 1477 1480 1480 1481 1482 1483 1483 1483 1483 1483 1483 1483 1485 1486 1487 1488 1490 1490 1490 1490 1491 1492 1492 1493 1493 1492 1492 1490 1489 1487 1484 1482 1479 1477 1474 1471 1467 1463 1459 1456 1452
1465 1465 1464 1464 1465 1467 1469 1471 1473 1474 1476 1477 1478 1479 1480 1481 1483 1484 1484 1484 1483 1484 1484 1484 1485 1485 1486 1487 1488 1489 1489 1489 1489 1490 1491 1492 1492 1491 1489 1488 1487 1485 1483 1480 1478 1475 1472 1470 1466 1462 1458 1453 1449 1445
1467 1467 1466 1467 1469 1470 1475 1474 1476 1477 1478 1478 1479 1480 1481 1482 1483 1485 1484 1484 1484 1484 1484 1484 1484 1485 1486 1487 1488 1489 1490 1489 1490 1490 1491 1490 1489 1489 1487 1485 1483 1481 1479 1477 1474 1472 1469 1465 1461 1457 1453 1448 1443 1438
1471 1471 1472 1472 1474 1476 1476 1476 1477 1478 1479 1480 1480 1481 1481 1482 1483 1484 1484 1483 1484 1484 1484 1484 1485 1485 1486 1487 1488 1489 1490 1490 1490 1490 1489 1488 1487 1486 1484 1482 1480 1478 1476 1473 1470 1467 1464 1459 1455 1451 1447 1442 1437 1433
1480 1479 1479 1477 1477 1478 1478 1478 1477 1478 1480 1477 1479 1479 1479 1481 1483 1484 1484 1483 1483 1484 1484 1484 1485 1486 1486 1487 1488 1489 1489 1489 1488 1487 1486 1485 1484 1483 1482 1480 1477 1475 1471 1468 1464 1460 1457 1453 1449 1445 1441 1437 1432 1427
1480 1478 1479 1477 1478 1479 1478 1480 1478 1477 1477 1477 1477 1477 1477 1479 1481 1484 1482 1483 1483 1484 1485 1486 1486 1487 1487 1488 1488 1488 1487 1487 1485 1484 1483 1482 1481 1479 1477 1476 1473 1471 1468 1464 1459 1455 1451 1448 1444 1440 1436 1432 1428 1423
1480 1477 1477 1477 1476 1476 1475 1474 1473 1473 1474 1474 1475 1476 1477 1479 1481 1483 1483 1483 1484 1484 1485 1486 1486 1486 1486 1486 1486 1486 1485 1484 1483 1483 1481 1480 1479 1477 1475 1472 1469 1466 1463 1459 1456 1452 1447 1443 1439 1435 1431 1428 1424 1419
1477 1476 1476 1475 1474 1473 1473 1472 1472 1472 1472 1472 1473 1475 1475 1478 1481 1483 1483 1483 1484 1484 1485 1485 1485 1485 1485 1485 1485 1484 1484 1482 1481 1480 1480 1479 1477 1474 1473 1470 1467 1463 1460 1456 1452 1448 1444 1439 1435 1432 1429 1425 1423 1420
1477 1476 1476 1474 1473 1473 1473 1473 1472 1472 1472 1472 1473 1476 1479 1480 1482 1482 1483 1484 1484 1485 1485 1485 1484 1484 1484 1484 1483 1483 1482 1482 1482 1480 1478 1476 1473 1471 1468 1465 1462 1459 1455 1452 1449 1444 1439 1435 1432 1429 1427 1424 1420 1417
1476 1476 1475 1475 1475 1475 1475 1474 1474 1473 1473 1472 1473 1476 1478 1481 1482 1483 1483 1484 1484 1484 1484 1484 1483 1483 1483 1482 1482 1481 1480 1479 1477 1476 1473 1471 1469 1467 1463 1460 1457 1454 1450 1446 1443 1440 1437 1433 1429 1427 1423 1420 1417 1414
1476 1476 1476 1476 1476 1476 1475 1475 1474 1474 1474 1474 1474 1475 1477 1480 1482 1483 1483 1483 1483 1483 1483 1482 1482 1482 1482 1481 1481 1480 1478 1477 1475 1472 1470 1468 1465 1463 1460 1456 1453 1449 1446 1442 1439 1435 1432 1428 1425 1422 1419 1416 1413 1411
1477 1477 1477 1476 1476 1476 1476 1475 1475 1475 1475 1475 1475 1476 1478 1479 1481 1483 1483 1483 1483 1483 1482 1482 1482 1481 1480 1479 1478 1476 1474 1473 1470 1468 1466 1464 1461 1458 1455 1452 1449 1445 1442 1439 1435 1432 1429 1426 1423 1420 1417 1414 1412 1409
1478 1478 1478 1477 1476 1476 1476 1475 1474 1474 1474 1474 1475 1476 1477 1479 1480 1483 1482 1483 1483 1482 1482 1482 1481 1480 1479 1478 1476 1474 1472 1470 1467 1465 1462 1459 1457 1454 1450 1447 1444 1441 1438 1435 1432 1430 1427 1424 1421 1419 1416 1413 1411 1409